• In Belarus
  • List of Countries
  • For 7 days
  • Water Temperature
  • Satellite Maps
  • Weather Map
  • Weather Widgets
  • user-avatar
    Login

    Hourly Weather Preston

    Today, 15 July, Monday

    Time Temperature Precipitation Wind Pressure Humidity
    00:00 +14°C° 0 mm 2 mps 765 mmHg 86%
    01:00 +14°C° 0 mm 2 mps 765 mmHg 87%
    02:00 +13°C° 0 mm 2 mps 765 mmHg 88%
    03:00 +13°C° 0 mm 2 mps 765 mmHg 89%
    04:00 +13°C° 0 mm 2 mps 765 mmHg 88%
    05:00 +14°C° 0 mm 2 mps 764 mmHg 86%
    06:00 +15°C° 0 mm 2 mps 764 mmHg 86%
    07:00 +16°C° 0 mm 2 mps 764 mmHg 81%
    08:00 +18°C° 0 mm 2 mps 764 mmHg 75%
    09:00 +19°C° 0 mm 2 mps 764 mmHg 70%
    10:00 +20°C° 0 mm 2 mps 764 mmHg 66%
    11:00 +21°C° 0 mm 2 mps 764 mmHg 62%
    12:00 +23°C° 0 mm 1 mps 764 mmHg 59%
    13:00 +23°C° 0 mm 1 mps 763 mmHg 60%
    14:00 +23°C° 0 mm 1 mps 763 mmHg 60%
    15:00 +23°C° 0 mm 2 mps 763 mmHg 60%
    16:00 +23°C° 0 mm 2 mps 763 mmHg 64%
    17:00 +21°C° 0 mm 2 mps 763 mmHg 67%
    18:00 +21°C° 0 mm 2 mps 762 mmHg 70%
    19:00 +20°C° 0 mm 2 mps 762 mmHg 74%
    20:00 +19°C° 0 mm 1 mps 762 mmHg 77%
    21:00 +18°C° 0 mm 1 mps 762 mmHg 81%
    22:00 +18°C° 0 mm 1 mps 762 mmHg 82%
    23:00 +16°C° 0 mm 1 mps 762 mmHg 84%

    Tomorrow, 16 July, Tuesday

    Time Temperature Precipitation Wind Pressure Humidity
    00:00 +15°C° 0 mm 1 mps 762 mmHg 85%
    01:00 +15°C° 0 mm 1 mps 762 mmHg 86%
    02:00 +15°C° 0 mm 1 mps 762 mmHg 87%
    03:00 +15°C° 0 mm 1 mps 762 mmHg 88%
    04:00 +15°C° 0 mm 1 mps 762 mmHg 87%
    05:00 +16°C° 0 mm 2 mps 762 mmHg 86%
    06:00 +17°C° 0 mm 2 mps 761 mmHg 85%
    07:00 +18°C° 0 mm 2 mps 761 mmHg 80%
    08:00 +19°C° 0 mm 3 mps 762 mmHg 75%
    09:00 +20°C° 0 mm 3 mps 762 mmHg 71%
    10:00 +20°C° 0 mm 3 mps 761 mmHg 69%
    11:00 +20°C° 0 mm 4 mps 761 mmHg 68%
    12:00 +21°C° 0 mm 4 mps 761 mmHg 66%
    13:00 +21°C° 0 mm 4 mps 761 mmHg 66%
    14:00 +21°C° 0 mm 4 mps 760 mmHg 66%
    15:00 +21°C° 0 mm 4 mps 760 mmHg 65%
    16:00 +20°C° 0 mm 4 mps 760 mmHg 67%
    17:00 +20°C° 0 mm 3 mps 760 mmHg 69%
    18:00 +19°C° 0 mm 3 mps 760 mmHg 71%
    19:00 +18°C° 0 mm 2 mps 760 mmHg 76%
    20:00 +18°C° 0 mm 1 mps 760 mmHg 80%
    21:00 +15°C° 0 mm 1 mps 760 mmHg 84%
    22:00 +15°C° 0 mm 1 mps 760 mmHg 85%
    23:00 +15°C° 0 mm 1 mps 760 mmHg 85%

    Day after tomorrow, 17 July, Wednesday

    Time Temperature Precipitation Wind Pressure Humidity
    00:00 +14°C° 0 mm 1 mps 759 mmHg 85%
    01:00 +14°C° 0 mm 1 mps 759 mmHg 86%
    02:00 +14°C° 0 mm 1 mps 759 mmHg 86%
    03:00 +14°C° 0 mm 1 mps 759 mmHg 86%
    04:00 +15°C° 0 mm 1 mps 758 mmHg 85%
    05:00 +15°C° 0 mm 1 mps 758 mmHg 83%
    06:00 +16°C° 0 mm 1 mps 758 mmHg 82%
    07:00 +17°C° 0 mm 2 mps 758 mmHg 78%
    08:00 +18°C° 0 mm 2 mps 758 mmHg 74%
    09:00 +19°C° 0 mm 2 mps 757 mmHg 70%
    10:00 +20°C° 0 mm 3 mps 757 mmHg 69%
    11:00 +20°C° 0 mm 4 mps 757 mmHg 67%
    12:00 +21°C° 0 mm 4 mps 756 mmHg 66%
    13:00 +20°C° 0 mm 5 mps 756 mmHg 67%
    14:00 +20°C° 0 mm 5 mps 756 mmHg 68%
    15:00 +20°C° 0 mm 5 mps 756 mmHg 69%
    16:00 +19°C° 0.1 mm 5 mps 755 mmHg 73%
    17:00 +18°C° 0.1 mm 4 mps 755 mmHg 79%
    18:00 +17°C° 0.1 mm 4 mps 755 mmHg 85%
    19:00 +17°C° 0.1 mm 4 mps 754 mmHg 86%
    20:00 +17°C° 0.1 mm 4 mps 754 mmHg 87%
    21:00 +16°C° 0.1 mm 3 mps 754 mmHg 88%
    22:00 +16°C° 0.1 mm 3 mps 754 mmHg 89%
    23:00 +16°C° 0.1 mm 3 mps 753 mmHg 90%

    18 July, Thursday

    Time Temperature Precipitation Wind Pressure Humidity
    00:00 +16°C° 0.1 mm 3 mps 753 mmHg 90%
    01:00 +16°C° 0.5 mm 3 mps 753 mmHg 92%
    02:00 +16°C° 0.5 mm 2 mps 753 mmHg 93%
    03:00 +16°C° 0.5 mm 2 mps 752 mmHg 95%
    04:00 +16°C° 0.2 mm 3 mps 752 mmHg 94%
    05:00 +15°C° 0.2 mm 4 mps 752 mmHg 94%
    06:00 +15°C° 0.2 mm 4 mps 752 mmHg 93%
    07:00 +15°C° 0 mm 5 mps 752 mmHg 89%
    08:00 +15°C° 0 mm 5 mps 752 mmHg 86%
    09:00 +15°C° 0 mm 5 mps 752 mmHg 82%
    10:00 +16°C° 0 mm 5 mps 752 mmHg 78%
    11:00 +16°C° 0 mm 6 mps 752 mmHg 73%
    12:00 +17°C° 0 mm 6 mps 752 mmHg 69%
    13:00 +17°C° 0.1 mm 6 mps 752 mmHg 68%
    14:00 +17°C° 0.1 mm 7 mps 752 mmHg 67%
    15:00 +17°C° 0.1 mm 7 mps 752 mmHg 67%
    16:00 +17°C° 0 mm 7 mps 753 mmHg 68%
    17:00 +17°C° 0 mm 6 mps 753 mmHg 69%
    18:00 +16°C° 0 mm 6 mps 753 mmHg 70%
    19:00 +15°C° 0 mm 5 mps 753 mmHg 75%
    20:00 +14°C° 0 mm 5 mps 754 mmHg 79%
    21:00 +14°C° 0 mm 4 mps 754 mmHg 83%
    22:00 +13°C° 0.1 mm 4 mps 754 mmHg 85%
    23:00 +13°C° 0.1 mm 4 mps 754 mmHg 87%

    19 July, Friday

    Time Temperature Precipitation Wind Pressure Humidity
    00:00 +13°C° 0.1 mm 4 mps 754 mmHg 88%
    01:00 +13°C° 0 mm 4 mps 755 mmHg 89%
    02:00 +12°C° 0 mm 3 mps 755 mmHg 89%
    03:00 +12°C° 0 mm 3 mps 755 mmHg 90%
    04:00 +12°C° 0 mm 3 mps 755 mmHg 89%
    05:00 +13°C° 0 mm 3 mps 755 mmHg 88%
    06:00 +14°C° 0 mm 2 mps 755 mmHg 87%
    07:00 +14°C° 0.1 mm 3 mps 755 mmHg 83%
    08:00 +16°C° 0.1 mm 3 mps 755 mmHg 80%
    09:00 +17°C° 0.1 mm 4 mps 755 mmHg 76%
    10:00 +17°C° 0.1 mm 4 mps 755 mmHg 73%
    11:00 +18°C° 0.1 mm 4 mps 755 mmHg 70%
    12:00 +18°C° 0.1 mm 4 mps 755 mmHg 67%
    13:00 +18°C° 0.1 mm 4 mps 755 mmHg 68%
    14:00 +18°C° 0.1 mm 3 mps 755 mmHg 70%
    15:00 +18°C° 0.1 mm 3 mps 755 mmHg 72%
    16:00 +17°C° 0.9 mm 3 mps 755 mmHg 79%
    17:00 +16°C° 0.9 mm 2 mps 755 mmHg 85%
    18:00 +15°C° 0.9 mm 2 mps 754 mmHg 92%
    19:00 +14°C° 1.7 mm 3 mps 754 mmHg 92%
    20:00 +13°C° 1.7 mm 4 mps 754 mmHg 92%
    21:00 +13°C° 1.7 mm 5 mps 754 mmHg 91%
    22:00 +14°C° 0.4 mm 5 mps 753 mmHg 92%
    23:00 +14°C° 0.4 mm 5 mps 753 mmHg 92%

    20 July, Saturday

    Time Temperature Precipitation Wind Pressure Humidity
    00:00 +15°C° 0.4 mm 5 mps 753 mmHg 93%
    01:00 +15°C° 0.2 mm 4 mps 752 mmHg 93%
    02:00 +15°C° 0.2 mm 4 mps 752 mmHg 93%
    03:00 +15°C° 0.2 mm 4 mps 752 mmHg 93%
    04:00 +15°C° 0.4 mm 4 mps 752 mmHg 94%
    05:00 +17°C° 0.4 mm 3 mps 753 mmHg 94%
    06:00 +17°C° 0.4 mm 3 mps 753 mmHg 94%
    07:00 +17°C° 0 mm 3 mps 753 mmHg 92%
    08:00 +17°C° 0 mm 3 mps 754 mmHg 91%
    09:00 +17°C° 0 mm 3 mps 754 mmHg 89%
    10:00 +18°C° 0 mm 4 mps 755 mmHg 86%
    11:00 +17°C° 0 mm 5 mps 755 mmHg 84%
    12:00 +19°C° 0 mm 5 mps 756 mmHg 81%
    13:00 +19°C° 0 mm 5 mps 756 mmHg 79%
    14:00 +19°C° 0 mm 5 mps 757 mmHg 76%
    15:00 +19°C° 0 mm 5 mps 757 mmHg 74%
    16:00 +19°C° 0 mm 5 mps 757 mmHg 74%
    17:00 +18°C° 0 mm 4 mps 758 mmHg 75%
    18:00 +18°C° 0 mm 4 mps 758 mmHg 75%
    19:00 +17°C° 0 mm 3 mps 759 mmHg 80%
    20:00 +16°C° 0 mm 2 mps 759 mmHg 84%
    21:00 +14°C° 0 mm 2 mps 760 mmHg 88%
    22:00 +14°C° 0 mm 1 mps 760 mmHg 89%
    23:00 +14°C° 0 mm 1 mps 760 mmHg 89%
    Show more